Wind_Speed
33 33 33 33 34 34 35 36 36 35 35 36 37 38 38 39 39 39 39 39 40 41 42 43 43 45 46 47 48 49 50 51 51 53 53 54 54 54 54 55 56 57 57 57
33 33 33 33 33 34 35 35 36 36 36 36 36 37 38 39 39 39 39 40 41 41 42 43 43 44 45 45 46 47 48 49 50 51 52 54 55 55 55 55 56 57 57 57
33 33 34 34 32 33 34 35 36 37 36 36 37 37 38 38 39 39 39 39 40 41 42 43 44 44 44 44 45 45 46 48 49 50 51 53 54 55 55 56 57 57 57 57
32 33 34 32 31 33 34 34 35 36 36 37 37 37 38 38 38 38 39 39 40 41 42 42 43 44 44 44 44 45 45 46 47 48 49 50 51 53 54 55 56 56 56 57
30 31 33 30 30 30 31 32 34 36 37 38 38 38 37 38 38 38 39 39 40 40 41 41 41 42 42 42 42 43 44 45 46 47 47 48 49 50 51 52 53 55 56 56
29 30 31 29 29 30 31 31 31 33 35 36 37 38 36 37 37 38 38 38 38 39 39 40 40 40 41 41 41 41 42 43 44 45 46 47 47 48 49 50 50 51 53 54
27 28 29 28 29 29 31 30 30 32 33 35 36 37 37 36 37 37 37 38 38 38 38 39 39 40 40 40 40 41 42 43 43 45 45 46 46 47 47 48 49 50 51 51
25 27 26 25 26 27 29 29 30 31 32 34 35 35 36 35 35 35 36 36 36 37 38 38 38 39 39 39 40 41 41 42 43 44 45 45 45 46 47 48 48 48 49 49
25 25 25 26 27 27 28 29 29 29 30 31 32 32 33 34 33 34 34 35 35 35 36 37 38 39 39 40 40 41 41 41 42 42 43 43 44 45 46 47 47 47 47 48
26 25 25 26 26 26 27 28 28 28 29 29 30 30 29 29 30 31 32 32 33 33 34 35 36 37 38 38 39 40 40 41 41 42 42 42 43 43 44 44 45 45 45 45
23 23 24 24 25 26 26 27 28 28 29 29 28 28 28 28 28 29 30 31 31 32 33 34 35 36 37 37 38 38 38 39 40 40 41 41 42 42 42 43 43 42 42 43
23 23 24 24 24 25 26 27 27 28 27 27 27 27 27 28 28 29 29 30 30 31 32 33 34 34 35 35 36 36 36 37 37 38 38 39 39 39 39 40 40 40 40 41
24 24 25 24 24 25 25 26 27 27 26 26 26 26 27 27 28 29 30 30 30 31 31 32 32 33 33 34 34 34 34 34 35 35 35 35 36 36 36 37 37 37 38 39
25 24 24 24 25 25 25 26 26 26 26 26 26 26 26 27 27 28 29 29 30 30 30 31 31 31 31 32 32 32 32 32 32 32 32 33 33 34 34 34 35 35 36 37
25 25 25 24 24 24 24 25 25 26 25 25 25 25 26 26 27 27 27 27 27 28 29 29 29 29 29 29 30 31 31 31 31 30 31 31 32 32 32 33 33 33 34 34
26 25 25 25 24 24 24 25 25 25 24 24 24 24 25 25 26 26 26 26 26 26 26 26 26 27 27 28 29 29 30 30 30 30 30 31 31 31 31 31 31 32 32 32
25 25 25 25 24 24 24 25 24 24 24 24 24 24 24 24 24 24 24 25 25 25 25 25 26 26 27 27 28 28 29 29 30 30 31 31 31 31 31 31 31 31 31 31
23 23 23 23 24 24 24 24 24 24 24 24 24 24 24 24 24 24 24 24 25 25 26 26 26 26 27 27 28 29 29 30 30 30 31 31 31 31 31 31 31 31 31 31
22 22 22 22 23 23 23 23 23 23 23 23 24 24 24 25 25 25 25 25 26 26 26 26 26 27 27 27 28 29 29 29 30 30 30 30 30 30 31 31 30 30 31 31
22 22 22 22 23 23 23 22 22 23 23 23 23 24 24 25 25 26 26 26 27 27 27 27 27 27 27 27 28 28 29 29 29 29 29 29 29 29 29 29 29 29 29 29
22 22 22 22 22 22 22 22 23 23 23 23 23 23 24 24 25 25 26 26 26 26 26 26 26 27 27 28 28 28 28 28 28 28 28 28 28 28 28 28 27 27 27 27
22 22 21 21 21 21 22 22 23 23 23 23 24 24 25 25 25 25 25 25 25 25 25 25 26 27 27 27 27 27 26 26 26 26 27 27 26 26 26 26 25 25 26 26
21 21 21 21 22 22 23 23 23 23 23 23 24 24 24 24 25 25 25 25 25 25 26 26 27 27 27 26 25 25 25 25 25 25 26 26 26 25 25 25 25 25 25 25
21 21 22 22 22 22 22 22 22 23 23 23 24 25 25 25 25 26 26 26 26 26 27 27 27 26 25 25 25 25 25 25 25 25 25 25 25 25 25 25 25 25 26 25
21 21 21 21 22 22 23 23 23 23 24 25 25 26 26 26 26 26 26 27 27 27 27 26 26 25 25 25 25 25 25 25 25 25 25 25 25 25 25 25 25 25 25 24
20 21 21 21 22 22 22 23 23 24 24 25 26 26 26 27 27 27 27 27 27 27 26 25 25 25 25 25 25 25 25 25 25 25 24 24 24 24 24 24 24 24 24 23
21 21 21 21 22 22 23 23 24 24 25 26 26 27 27 27 27 28 27 27 26 26 25 25 25 25 25 25 25 25 25 25 25 25 24 24 24 24 24 24 24 23 23 22
Wind_Direction
271 270 269 267 265 264 262 262 263 264 264 265 266 267 267 266 265 264 264 263 263 262 261 261 261 261 261 261 261 261 261 261 261 262 262 262 262 262 263 263 265 265 265 265
271 271 270 268 266 265 263 263 263 264 264 264 264 265 265 266 265 265 264 264 263 263 262 262 262 263 263 263 263 263 263 262 262 262 262 262 262 262 263 264 265 266 266 265
272 272 271 269 268 267 266 264 264 265 265 265 265 265 265 266 266 265 265 264 264 264 263 263 262 263 263 263 264 264 264 264 264 264 264 264 264 265 265 265 266 266 266 266
275 273 273 274 272 270 269 268 266 266 265 265 266 266 267 267 266 265 264 265 264 264 264 264 264 264 265 264 264 265 265 265 265 265 266 266 266 266 267 267 267 266 267 267
276 275 275 274 274 274 272 270 267 267 267 267 268 268 267 267 266 266 265 265 264 264 264 264 265 266 266 265 265 265 266 266 267 267 267 268 268 268 268 268 268 268 267 267
276 275 276 276 275 274 274 273 271 270 269 269 269 268 268 267 267 266 266 266 265 264 264 265 265 266 267 266 266 266 267 268 268 269 269 269 270 270 270 270 270 269 268 268
277 277 277 278 278 277 276 277 277 275 273 271 271 270 269 268 268 268 268 268 267 266 266 266 266 267 267 267 267 268 269 269 269 270 271 271 272 272 272 271 271 271 270 269
278 278 281 281 280 279 280 279 280 279 277 275 273 272 271 271 269 269 268 268 269 268 268 267 267 267 268 268 269 270 271 271 271 272 273 274 274 273 273 273 273 272 271 271
278 281 283 281 282 282 282 283 283 282 280 278 276 273 272 271 270 270 270 270 271 271 270 269 269 269 270 270 270 271 271 272 273 273 274 275 275 275 274 274 274 273 272 272
279 282 282 282 282 282 283 284 284 284 284 282 280 276 273 272 272 272 272 271 272 272 272 271 271 272 272 271 271 272 272 272 274 275 275 276 276 276 275 275 275 275 274 274
282 283 283 282 283 283 284 285 285 285 284 282 281 278 276 274 274 272 271 272 272 273 273 272 272 272 273 273 273 274 275 275 276 276 277 277 277 277 276 275 276 276 276 275
286 286 285 286 285 284 284 285 286 286 285 282 280 278 277 276 275 274 274 274 275 276 275 275 275 274 274 274 275 275 276 277 277 277 278 278 277 277 277 277 277 277 277 276
288 288 287 286 285 285 285 285 285 286 286 283 280 278 277 277 277 277 277 277 277 278 278 278 277 276 275 276 277 277 277 278 279 279 279 279 279 279 278 278 278 278 279 278
288 288 287 286 286 284 284 284 285 286 286 284 282 280 279 278 278 278 278 278 279 279 280 279 279 278 276 276 277 277 278 280 280 279 279 279 280 281 280 279 278 279 279 279
286 286 286 286 287 286 284 284 285 287 288 286 285 283 281 280 280 280 280 280 281 281 280 280 279 279 278 278 278 279 280 280 279 280 280 280 281 283 283 282 279 279 279 280
286 286 286 287 287 286 286 286 287 287 287 287 288 287 286 285 285 284 283 283 284 283 283 283 282 281 280 280 280 281 281 280 280 281 282 282 284 285 284 283 281 281 282 282
287 287 287 287 287 287 289 289 288 287 286 287 287 288 289 289 289 289 288 287 286 285 285 285 285 283 282 282 282 282 282 282 282 283 284 285 284 285 285 284 283 283 283 283
289 288 288 288 289 290 291 290 289 288 288 287 286 287 289 289 290 290 288 288 287 287 288 288 286 285 284 284 284 284 283 283 283 284 285 285 285 285 285 284 284 284 284 284
293 291 291 291 291 292 293 291 291 291 291 290 289 288 288 289 290 290 288 287 288 288 288 288 287 286 286 286 286 286 285 285 285 286 286 287 286 285 285 285 285 285 284 284
293 293 293 293 294 294 294 293 292 292 293 293 293 292 291 291 291 290 289 288 288 288 288 288 287 286 287 287 288 288 287 286 286 287 287 287 286 285 285 285 285 286 285 285
294 294 294 295 295 294 295 294 293 292 293 294 294 294 293 293 292 291 291 290 290 290 289 289 288 289 290 290 290 290 288 288 288 288 288 288 287 286 286 286 286 286 286 286
295 294 294 295 295 295 296 296 294 293 293 294 295 295 294 293 293 293 292 291 291 291 290 290 290 291 292 292 291 290 289 289 288 289 289 289 289 288 287 287 286 287 287 287
296 296 296 296 296 296 297 296 296 295 295 296 296 296 295 294 294 293 292 292 292 291 291 291 291 291 292 291 291 291 290 290 289 290 290 290 290 289 288 287 287 288 288 288
299 298 298 298 297 298 299 299 298 298 298 298 298 297 297 296 295 294 293 292 292 292 292 292 291 291 290 291 291 291 291 291 291 290 290 289 289 289 289 289 289 289 288 287
301 300 300 299 299 300 300 300 299 299 299 299 300 299 298 297 297 295 294 293 292 292 292 291 290 290 290 290 291 292 291 291 290 290 289 288 288 288 290 291 290 290 288 286
303 302 302 302 303 303 302 302 302 302 301 301 301 301 300 299 298 297 295 294 293 292 291 291 290 290 291 291 292 293 292 292 291 290 289 288 288 288 290 291 290 290 288 286
304 303 303 304 304 304 304 304 304 304 304 303 302 302 300 299 298 297 296 294 292 291 291 290 291 291 291 291 293 294 293 292 291 291 290 288 287 287 289 289 289 289 287 285
Height
5523 5523 5523 5524 5525 5526 5526 5527 5528 5530 5531 5532 5532 5532 5533 5533 5534 5535 5536 5537 5538 5539 5540 5542 5543 5544 5546 5547 5548 5549 5551 5552 5553 5554 5555 5556 5558 5559 5560 5560 5561 5561 5562 5562
5514 5515 5514 5514 5516 5516 5517 5518 5518 5519 5520 5522 5521 5522 5522 5522 5523 5524 5525 5525 5526 5527 5528 5529 5530 5532 5533 5534 5534 5535 5536 5537 5538 5539 5540 5541 5542 5543 5544 5544 5545 5545 5545 5546
5505 5505 5504 5505 5508 5507 5507 5508 5508 5508 5511 5510 5511 5511 5511 5512 5512 5512 5513 5514 5514 5515 5516 5517 5518 5519 5520 5520 5521 5522 5522 5523 5523 5524 5525 5526 5527 5527 5528 5528 5529 5529 5529 5529
5495 5496 5495 5500 5498 5497 5497 5498 5498 5498 5499 5499 5500 5500 5501 5500 5500 5501 5501 5502 5502 5503 5504 5505 5505 5506 5507 5507 5508 5508 5509 5509 5509 5510 5510 5511 5511 5511 5512 5512 5512 5513 5513 5513
5486 5485 5486 5490 5489 5488 5487 5488 5489 5488 5489 5489 5489 5489 5490 5490 5489 5489 5489 5490 5490 5491 5492 5492 5493 5493 5494 5494 5495 5495 5495 5495 5496 5496 5496 5496 5496 5496 5496 5496 5496 5496 5496 5496
5478 5477 5477 5482 5480 5478 5478 5479 5480 5478 5478 5478 5477 5478 5480 5479 5478 5478 5478 5478 5479 5479 5480 5480 5481 5481 5481 5482 5482 5482 5482 5482 5482 5482 5482 5482 5482 5481 5481 5480 5480 5479 5479 5479
5471 5469 5469 5473 5471 5470 5471 5472 5470 5468 5468 5467 5466 5467 5468 5467 5467 5467 5467 5467 5467 5468 5468 5469 5469 5469 5469 5470 5470 5469 5469 5469 5469 5469 5468 5468 5467 5467 5466 5466 5465 5465 5464 5464
5464 5463 5466 5465 5463 5463 5462 5461 5460 5458 5457 5457 5456 5456 5456 5456 5456 5456 5456 5456 5456 5456 5457 5457 5457 5457 5457 5458 5457 5457 5457 5456 5456 5456 5455 5454 5454 5453 5452 5451 5450 5449 5448 5448
5458 5459 5458 5456 5455 5454 5453 5452 5450 5449 5448 5447 5446 5446 5446 5446 5446 5445 5445 5445 5445 5445 5445 5445 5445 5445 5445 5445 5445 5444 5444 5444 5443 5442 5441 5440 5440 5439 5437 5436 5435 5434 5433 5433
5451 5451 5450 5449 5447 5446 5445 5443 5442 5441 5440 5438 5437 5436 5436 5436 5436 5435 5435 5435 5435 5435 5434 5434 5434 5433 5433 5433 5432 5432 5431 5431 5430 5429 5428 5427 5426 5425 5423 5422 5421 5420 5419 5418
5444 5444 5443 5442 5440 5439 5437 5436 5434 5433 5431 5429 5428 5428 5427 5427 5426 5426 5426 5425 5425 5424 5424 5423 5422 5422 5421 5420 5420 5420 5419 5418 5417 5416 5415 5414 5413 5411 5410 5409 5407 5406 5405 5404
5438 5438 5435 5435 5433 5431 5429 5428 5426 5425 5423 5422 5420 5420 5419 5418 5418 5417 5417 5416 5415 5414 5413 5412 5411 5410 5409 5409 5408 5408 5407 5406 5405 5404 5403 5402 5400 5399 5397 5396 5394 5393 5391 5390
5431 5430 5428 5427 5425 5423 5422 5420 5418 5417 5415 5414 5413 5412 5411 5410 5409 5408 5407 5406 5405 5404 5403 5402 5401 5400 5399 5398 5397 5397 5396 5395 5394 5392 5391 5390 5388 5387 5386 5384 5382 5381 5379 5377
5424 5423 5421 5420 5418 5416 5414 5413 5411 5409 5408 5406 5405 5404 5403 5402 5400 5399 5398 5397 5396 5395 5393 5392 5391 5390 5389 5388 5387 5386 5385 5384 5383 5382 5380 5379 5378 5376 5374 5373 5372 5370 5368 5366
5417 5415 5414 5412 5411 5409 5407 5405 5404 5402 5401 5399 5397 5396 5395 5393 5392 5390 5389 5388 5387 5385 5384 5383 5382 5380 5379 5378 5377 5376 5375 5374 5373 5372 5370 5369 5367 5366 5364 5362 5361 5359 5357 5355
5410 5408 5406 5405 5404 5402 5400 5398 5397 5395 5393 5391 5390 5388 5386 5385 5383 5382 5381 5379 5378 5377 5375 5374 5373 5371 5370 5369 5368 5366 5365 5364 5363 5362 5360 5359 5357 5356 5354 5352 5350 5349 5347 5345
5402 5401 5399 5398 5396 5394 5393 5391 5389 5387 5386 5384 5382 5381 5379 5377 5376 5374 5373 5371 5370 5368 5367 5366 5364 5363 5361 5360 5358 5357 5356 5354 5353 5352 5350 5349 5347 5345 5344 5342 5340 5339 5337 5335
5395 5393 5392 5390 5389 5387 5385 5384 5382 5380 5378 5376 5375 5373 5372 5370 5369 5367 5365 5364 5362 5361 5359 5357 5356 5354 5353 5351 5349 5348 5346 5345 5344 5342 5341 5339 5337 5335 5334 5332 5330 5328 5327 5325
5388 5387 5385 5383 5382 5380 5378 5376 5375 5373 5371 5369 5368 5366 5364 5362 5361 5359 5358 5356 5355 5353 5351 5349 5347 5346 5344 5342 5340 5339 5337 5335 5334 5332 5330 5329 5327 5325 5323 5322 5320 5318 5316 5314
5382 5381 5379 5377 5375 5373 5371 5370 5368 5366 5364 5362 5360 5358 5356 5355 5353 5351 5350 5348 5346 5345 5343 5341 5339 5337 5336 5334 5332 5330 5328 5326 5324 5322 5321 5319 5317 5315 5313 5311 5310 5308 5306 5304
5376 5374 5373 5371 5369 5367 5365 5363 5361 5359 5357 5355 5353 5351 5349 5347 5345 5344 5342 5340 5338 5336 5334 5333 5331 5329 5327 5325 5323 5321 5319 5317 5315 5313 5311 5309 5308 5306 5304 5302 5300 5299 5297 5295
5370 5368 5366 5365 5363 5361 5359 5357 5354 5352 5350 5348 5346 5344 5342 5340 5338 5336 5334 5332 5330 5328 5326 5324 5322 5320 5318 5316 5314 5312 5310 5308 5306 5304 5302 5301 5299 5297 5295 5293 5292 5290 5288 5286
5364 5362 5360 5358 5356 5354 5352 5350 5348 5346 5343 5341 5339 5337 5334 5332 5330 5328 5326 5324 5322 5320 5318 5316 5314 5312 5310 5308 5306 5304 5301 5299 5298 5296 5294 5292 5290 5289 5287 5285 5283 5281 5280 5278
5358 5356 5354 5352 5350 5348 5346 5344 5341 5339 5337 5334 5332 5329 5327 5325 5322 5320 5318 5316 5314 5312 5310 5307 5305 5303 5301 5299 5297 5295 5293 5291 5290 5288 5286 5284 5282 5280 5279 5277 5275 5273 5272 5270
5352 5350 5348 5346 5344 5342 5340 5337 5335 5332 5330 5327 5325 5322 5319 5317 5314 5312 5310 5307 5305 5303 5301 5299 5297 5295 5293 5291 5289 5287 5285 5283 5281 5279 5278 5276 5274 5273 5271 5269 5267 5265 5264 5262
5347 5345 5342 5340 5338 5335 5333 5330 5328 5325 5323 5320 5317 5314 5312 5309 5306 5304 5301 5299 5297 5295 5292 5290 5289 5287 5285 5283 5281 5279 5277 5275 5273 5271 5269 5268 5266 5265 5263 5261 5259 5258 5256 5254
5341 5339 5337 5334 5332 5329 5326 5324 5321 5318 5315 5312 5309 5306 5303 5301 5298 5295 5293 5291 5288 5286 5284 5282 5280 5278 5276 5274 5272 5270 5268 5266 5265 5263 5261 5260 5258 5257 5255 5254 5252 5250 5249 5247